GW5426 Weather Reports


Display with metric or nautical units.
time (UTC)temp
F
wind
direction
speed
MPH
gust
MPH
rain 1hr
in
rain 24hr
in
rain mn
in
humidity
%
barometer
mb
20260509053348 53 146 2.0 7.0 0.00 0.00 0.00 56 1001.7
20260509051834 53 111 2.0 7.0 0.00 0.00 0.00 55 1001.8
20260509050330 54 206 2.0 7.0 0.00 0.00 0.00 54 1001.7
20260509044833 54 195 4.0 9.0 0.00 0.00 0.00 53 1001.7
20260509043323 53 182 4.0 8.0 0.00 0.00 0.00 53 1001.7
20260509041855 53 169 2.0 5.0 0.00 0.00 0.00 53 1001.8
20260509040333 52 205 2.0 3.0 0.00 0.00 0.00 53 1002.0
20260509034855 52 142 0.0 1.0 0.00 0.00 0.00 51 1002.2
20260509033333 53 168 0.0 3.0 0.00 0.00 0.00 49 1002.4
20260509031828 53 139 1.0 3.0 0.00 0.00 0.00 47 1002.4
20260509030326 53 158 1.0 2.0 0.00 0.00 0.00 45 1002.6
20260509024831 53 155 1.0 2.0 0.00 0.00 0.00 43 1002.7
20260509023347 53 146 0.0 2.0 0.00 0.00 0.00 41 1003.0
20260509021835 54 158 1.0 2.0 0.00 0.00 0.00 40 1003.1
20260509020343 54 168 0.0 2.0 0.00 0.00 0.00 38 1003.1
20260509014906 55 173 0.0 2.0 0.00 0.00 0.00 37 1003.1
20260509013323 55 158 1.0 2.0 0.00 0.00 0.00 35 1003.0
20260509011837 55 176 1.0 2.0 0.00 0.00 0.00 34 1002.9
20260509010330 56 155 1.0 2.0 0.00 0.00 0.00 33 1003.0
20260509004834 58 158 0.0 1.0 0.00 0.00 0.00 30 1002.9
20260509003330 59 172 1.0 3.0 0.00 0.00 0.00 28 1002.8
20260509001839 59 160 1.0 2.0 0.00 0.00 0.00 26 1003.0
20260509000336 60 177 1.0 3.0 0.00 0.00 0.00 26 1003.2
20260508234843 61 141 1.0 3.0 0.00 0.00 0.00 25 1003.5
20260508233323 63 200 1.0 4.0 0.00 0.00 0.00 24 1003.5
20260508231832 63 191 3.0 6.0 0.00 0.00 0.00 22 1003.8
20260508230327 64 191 1.0 5.0 0.00 0.00 0.00 24 1003.9
20260508224829 64 61 1.0 5.0 0.00 0.00 0.00 26 1004.0
20260508223345 63 263 2.0 5.0 0.00 0.00 0.00 26 1004.0
20260508221828 63 272 2.0 6.0 0.00 0.00 0.00 28 1004.2
20260508220347 64 293 1.0 6.0 0.00 0.00 0.00 30 1004.3
20260508214828 64 200 3.0 7.0 0.00 0.00 0.00 28 1004.2
20260508213323 64 255 4.0 7.0 0.00 0.00 0.00 28 1004.4
20260508211839 63 237 3.0 9.0 0.00 0.00 0.00 28 1004.5
20260508210328 64 108 2.0 9.0 0.00 0.00 0.00 29 1004.6
20260508204838 63 200 2.0 7.0 0.00 0.00 0.00 29 1004.7
20260508203334 63 129 2.0 6.0 0.00 0.00 0.00 31 1004.8
20260508201831 62 18 2.0 9.0 0.00 0.00 0.00 31 1005.0
20260508200329 63 210 3.0 10.0 0.00 0.00 0.00 30 1005.4
20260508194833 62 134 3.0 10.0 0.00 0.00 0.00 33 1005.5
20260508193345 62 187 5.0 9.0 0.00 0.00 0.00 35 1005.7
20260508191829 62 343 3.0 7.0 0.00 0.00 0.00 34 1005.8
20260508190329 62 125 2.0 9.0 0.00 0.00 0.00 33 1005.9
20260508184912 63 330 3.0 9.0 0.00 0.00 0.00 32 1006.0
20260508183322 62 211 2.0 10.0 0.00 0.00 0.00 33 1006.1
20260508181836 62 307 4.0 9.0 0.00 0.00 0.00 34 1006.3
20260508180332 62 85 4.0 11.0 0.00 0.00 0.00 31 1006.4
20260508174837 62 237 4.0 9.0 0.00 0.00 0.00 32 1006.5
20260508173351 64 213 3.0 9.0 0.00 0.00 0.00 33 1006.7
20260508171824 63 224 2.0 9.0 0.00 0.00 0.00 35 1006.8
20260508170333 63 194 2.0 8.0 0.00 0.00 0.00 32 1007.0
20260508164837 63 26 3.0 7.0 0.00 0.00 0.00 33 1007.3
20260508163326 62 136 1.0 10.0 0.00 0.00 0.00 34 1007.4
20260508161833 63 293 3.0 6.0 0.00 0.00 0.00 30 1007.6
20260508160409 63 243 4.0 8.0 0.00 0.00 0.00 34 1007.5
20260508154823 62 224 2.0 9.0 0.00 0.00 0.00 36 1007.5
20260508153334 62 165 0.0 6.0 0.00 0.00 0.00 35 1007.5
20260508151845 61 169 2.0 8.0 0.00 0.00 0.00 38 1007.6
20260508150325 60 165 4.0 6.0 0.00 0.00 0.00 39 1007.6
20260508144826 59 231 3.0 6.0 0.00 0.00 0.00 46 1007.8
20260508143358 59 213 1.0 7.0 0.00 0.00 0.00 51 1007.8
20260508141827 58 203 1.0 7.0 0.00 0.00 0.00 54 1007.9
20260508140344 58 146 1.0 5.0 0.00 0.00 0.00 57 1007.9
20260508134826 56 212 1.0 4.0 0.00 0.00 0.00 60 1008.0
20260508133344 55 218 2.0 5.0 0.00 0.00 0.00 61 1008.0
20260508131828 54 199 1.0 5.0 0.00 0.00 0.00 66 1008.2
20260508130323 53 179 1.0 3.0 0.00 0.00 0.00 68 1008.3
20260508124829 52 233 0.0 2.0 0.00 0.00 0.00 70 1008.3
20260508123323 50 124 0.0 1.0 0.00 0.00 0.00 73 1008.4
20260508121835 47 154 0.0 1.0 0.00 0.00 0.00 74 1008.3
20260508120332 44 80 0.0 0.0 0.00 0.00 0.00 79 1008.1
20260508114834 42 13 0.0 0.0 0.00 0.00 0.00 82 1007.8
20260508113350 40 13 0.0 0.0 0.00 0.00 0.00 86 1007.9
20260508111902 37 13 0.0 0.0 0.00 0.00 0.00 91 1007.9
20260508110331 35 12 0.0 0.0 0.00 0.00 0.00 91 1007.9
20260508104840 34 13 0.0 0.0 0.00 0.00 0.00 91 1007.8
20260508103336 35 15 0.0 0.0 0.00 0.00 0.00 92 1007.7
20260508101826 34 15 0.0 0.0 0.00 0.00 0.00 91 1007.7
20260508100322 35 15 0.0 0.0 0.00 0.00 0.00 91 1007.8
20260508094823 34 15 0.0 0.0 0.00 0.00 0.00 91 1007.7
20260508093344 34 15 0.0 1.0 0.00 0.00 0.00 90 1007.9
20260508091849 35 342 0.0 1.0 0.00 0.00 0.00 90 1007.8
20260508090326 35 342 0.0 0.0 0.00 0.00 0.00 89 1007.8
20260508084858 35 342 0.0 2.0 0.00 0.00 0.00 90 1007.8
20260508083353 35 359 1.0 3.0 0.00 0.00 0.00 89 1007.8
20260508081849 36 221 0.0 0.0 0.00 0.00 0.00 87 1007.9
20260508080323 37 230 0.0 0.0 0.00 0.00 0.00 89 1008.0
20260508074826 36 230 0.0 0.0 0.00 0.00 0.00 88 1008.0
20260508073340 37 230 0.0 0.0 0.00 0.00 0.00 87 1008.1
20260508071826 37 199 0.0 0.0 0.00 0.00 0.00 85 1008.3
20260508070342 37 199 0.0 0.0 0.00 0.00 0.00 85 1008.4
20260508064822 37 201 1.0 2.0 0.00 0.00 0.00 86 1008.6
20260508063338 38 205 0.0 0.0 0.00 0.00 0.00 84 1008.7
20260508061931 38 323 0.0 0.0 0.00 0.00 0.00 85 1008.6
20260508060325 38 323 0.0 0.0 0.00 0.00 0.00 84 1008.5
20260508054826 38 323 0.0 0.0 0.00 0.00 0.00 84 1008.7